Wind_Speed
46 45 46 46 46 46 47 47 47 47 47 46 45 46 45 46 51 55 57 60 58 56 51 50 50 48 49 51 58 62 66 68 70 70 74 78 78 79 79 81 82 82 81
47 48 49 47 47 48 48 47 48 48 48 47 45 45 48 52 56 57 58 57 53 50 50 51 48 50 53 58 63 66 69 73 74 75 78 80 81 82 83 82 83 80 78
47 48 47 46 46 48 49 48 49 48 46 44 46 49 54 59 58 59 55 50 50 51 49 47 50 56 58 62 66 71 74 77 79 81 82 83 86 86 84 81 79 76 78
46 47 47 47 47 49 50 48 46 44 46 48 51 56 62 64 60 54 50 51 50 49 48 50 55 58 63 69 73 76 79 80 83 85 86 87 87 85 82 80 76 79 78
46 49 48 49 49 51 49 44 45 46 50 53 59 62 64 58 55 50 52 49 49 48 52 58 62 64 68 73 76 80 82 83 85 87 88 87 86 84 82 80 82 80 78
47 47 49 50 50 47 45 47 49 52 55 58 60 61 59 56 51 54 52 49 51 54 59 61 64 69 73 76 80 82 84 86 88 88 87 85 84 83 83 83 83 83 85
49 49 49 47 46 47 52 55 56 57 57 59 60 55 53 53 56 50 49 51 55 59 62 66 69 74 79 80 83 85 87 87 86 84 82 84 83 84 85 84 86 90 94
48 47 47 49 51 54 57 59 57 58 59 59 55 54 58 58 52 51 51 55 60 62 66 70 74 79 81 82 83 85 86 84 82 82 83 85 87 87 87 90 92 93 94
51 54 54 56 60 61 60 58 60 59 60 59 59 59 61 57 54 52 56 60 62 67 69 72 78 81 82 84 85 85 84 83 82 82 84 85 86 87 90 93 93 95 93
57 59 62 63 63 64 61 62 58 58 59 59 57 63 60 56 54 57 61 65 68 69 74 78 81 82 84 85 82 83 83 82 82 82 82 83 85 89 92 93 94 91 85
61 67 70 73 65 65 59 56 57 59 57 61 63 62 59 58 58 61 63 66 69 74 78 80 82 83 83 82 81 82 82 82 82 81 80 83 87 90 90 90 88 82 76
62 56 55 56 57 57 58 59 59 60 64 62 63 59 58 58 61 63 66 71 74 77 79 81 81 81 81 81 81 82 82 80 79 79 80 84 88 86 87 85 81 77 64
54 55 56 58 59 60 60 60 62 63 63 61 57 57 60 62 64 67 71 74 77 78 80 80 79 79 79 80 81 81 79 78 78 79 81 82 82 81 82 79 76 67 53
57 57 59 60 59 58 58 60 63 63 57 56 58 60 62 65 68 71 74 77 78 79 79 78 78 78 78 80 79 77 74 75 77 80 80 78 78 77 75 76 72 57 46
57 59 58 55 58 60 62 63 57 55 56 59 62 65 67 69 72 75 77 77 77 77 76 77 77 77 78 77 73 71 73 76 78 78 77 75 74 73 72 73 68 53 42
53 55 58 60 60 59 56 53 55 59 62 64 66 67 70 72 75 77 77 76 76 76 76 77 77 76 74 72 70 71 74 76 78 77 74 74 70 70 69 71 65 52 41
54 53 52 53 53 54 57 60 63 65 66 67 68 70 73 75 76 75 75 74 76 77 77 77 75 72 70 69 71 75 77 77 75 75 74 72 66 67 68 71 63 50 41
52 53 54 57 59 61 63 65 66 67 69 71 72 74 75 75 75 75 75 77 78 77 76 73 70 70 71 71 73 76 75 73 73 72 71 68 65 64 69 71 58 49 43
58 59 60 61 63 64 67 69 70 72 73 74 74 75 77 76 76 76 77 78 76 74 72 72 71 71 71 74 76 72 70 71 71 71 70 64 65 63 69 69 55 47 43
60 62 63 66 68 71 72 73 74 74 76 76 76 79 78 78 77 76 76 74 73 73 72 71 73 74 74 75 72 70 68 70 69 71 67 66 64 65 70 68 54 46 44
68 70 71 72 73 74 75 75 76 77 78 77 79 80 78 77 74 74 74 73 72 71 73 74 75 74 72 69 69 67 67 69 70 67 66 68 63 68 71 68 53 47 45
74 75 76 76 76 77 77 78 79 79 77 77 77 77 75 73 73 73 72 72 72 74 74 74 72 70 68 65 65 65 69 68 68 68 68 65 65 71 73 65 55 48 45
77 77 77 77 77 76 77 77 77 77 75 74 75 74 73 73 72 72 73 74 74 76 73 70 69 64 64 64 65 68 70 68 69 69 66 66 68 74 72 61 54 49 45
77 77 77 77 77 77 77 77 77 77 77 76 76 75 74 73 74 75 76 77 78 73 67 66 62 62 64 64 67 69 69 71 71 67 64 68 73 76 66 58 54 48 43
76 76 77 77 77 77 78 79 79 79 78 77 76 75 75 76 77 79 79 76 72 66 61 62 61 64 64 65 70 70 70 73 66 64 69 73 76 69 60 59 54 46 42
77 78 79 80 80 81 81 80 80 80 79 78 78 79 80 80 81 80 76 69 66 61 61 62 65 65 63 67 69 69 75 65 64 70 72 77 68 59 60 55 52 43 40
Wind_Direction
258 260 263 265 266 268 270 272 274 275 277 277 280 281 285 288 295 297 300 304 301 301 300 302 303 306 309 314 315 315 315 314 313 313 314 315 315 313 312 312 310 310 308
257 259 262 263 265 267 268 268 270 272 275 276 278 284 289 297 301 302 301 300 299 299 301 303 305 308 312 314 314 314 314 316 316 316 316 316 315 314 311 310 310 308 308
256 258 259 260 262 264 266 267 270 272 274 276 283 288 293 299 300 300 297 296 297 299 301 303 308 310 310 312 314 315 316 318 318 317 316 315 314 312 309 309 309 309 309
254 257 259 260 262 265 266 268 270 271 274 278 285 295 296 297 296 294 292 294 297 299 300 304 306 308 310 314 313 315 317 316 317 316 315 313 311 309 310 311 311 309 309
253 255 256 259 261 263 264 265 267 275 278 282 288 291 294 292 291 289 290 293 297 299 302 307 309 310 312 312 314 316 316 315 314 313 311 311 310 311 310 310 311 311 310
250 253 257 259 260 262 261 264 271 278 280 291 292 290 290 286 285 285 290 296 297 300 303 305 308 310 311 311 312 312 312 311 312 312 311 311 311 310 311 312 311 311 312
251 252 255 258 261 260 263 267 275 287 289 290 288 286 284 285 284 289 292 296 297 299 303 306 308 309 310 311 311 310 309 309 310 310 310 310 310 311 312 313 314 317 317
252 256 259 260 262 265 269 277 286 286 286 285 283 283 283 282 284 287 293 293 297 301 302 305 308 310 310 310 309 307 308 309 310 310 310 311 312 314 314 316 317 319 320
258 260 261 263 270 273 279 282 281 282 283 281 280 282 283 280 284 290 290 293 296 301 303 307 309 309 308 308 308 308 309 309 310 311 312 313 315 315 317 318 320 320 321
256 260 263 266 275 278 277 280 279 278 278 280 283 283 280 282 284 287 292 298 304 305 306 308 308 308 308 307 307 307 308 309 310 311 313 314 316 318 320 321 322 324 322
260 264 268 268 270 274 276 275 275 276 276 281 282 280 280 284 291 295 299 303 305 305 306 306 306 306 306 306 306 307 309 310 311 313 315 316 317 319 320 322 324 324 323
266 267 269 270 270 271 272 273 273 273 278 279 280 280 286 291 293 298 301 303 303 303 303 303 304 304 305 305 307 309 310 311 312 314 316 317 318 321 323 324 324 324 321
262 268 269 271 272 274 276 275 273 274 277 277 281 288 290 294 298 300 301 301 301 300 301 302 302 303 304 307 309 309 310 311 313 315 317 319 321 322 324 325 325 324 317
265 266 268 269 272 273 270 271 273 273 274 283 287 290 294 296 297 298 298 297 297 298 299 300 301 303 306 307 308 308 309 311 313 315 317 320 321 323 324 325 327 320 314
264 265 268 269 270 266 268 269 270 280 286 288 290 293 294 295 294 294 295 295 295 297 298 299 301 304 305 306 306 307 309 311 313 316 318 319 320 321 323 325 325 317 313
265 265 264 263 264 266 269 278 284 285 286 289 290 291 292 292 291 291 292 293 295 297 298 300 303 304 304 304 305 307 308 310 313 316 317 317 317 320 321 324 322 313 311
261 260 261 265 272 277 279 281 282 285 287 288 289 290 290 289 288 290 292 294 296 297 299 301 302 302 302 304 305 306 308 311 313 314 316 315 316 318 319 323 317 309 303
265 268 270 272 274 277 280 283 285 286 286 288 287 286 285 287 289 291 293 294 296 297 299 299 300 301 303 304 305 307 309 310 311 314 313 313 315 316 319 322 313 304 298
269 273 276 279 281 282 283 283 284 284 284 283 282 284 285 287 289 291 293 294 295 296 297 298 300 301 302 303 304 306 308 310 311 313 312 310 314 315 322 323 310 298 294
277 279 280 280 281 281 281 281 281 280 281 282 283 283 285 287 290 291 291 293 294 295 297 298 300 301 301 303 304 305 307 310 311 312 310 310 312 316 321 322 309 297 291
277 278 279 279 279 279 279 279 278 279 280 281 282 285 287 289 290 289 291 292 293 295 298 300 300 301 300 301 303 305 308 310 310 310 308 311 311 317 320 320 307 297 289
279 279 279 278 277 277 277 278 279 280 282 283 284 286 287 288 288 289 291 292 296 298 299 299 298 298 298 300 302 305 308 307 308 309 309 311 311 317 318 316 307 297 289
275 274 274 274 275 276 277 278 279 280 281 282 283 285 285 286 287 289 292 294 295 297 298 296 296 296 297 300 303 305 304 306 306 306 308 312 312 315 315 311 306 298 288
272 273 273 274 275 276 277 278 279 280 281 282 282 283 284 286 288 290 291 293 295 296 293 292 293 294 297 299 300 302 303 303 305 307 309 310 311 313 310 308 305 296 285
272 273 273 274 275 276 277 278 279 280 280 280 281 283 285 287 288 289 291 292 291 291 289 291 291 295 295 299 299 301 305 306 305 306 307 309 310 309 306 307 304 294 284
271 272 273 274 274 274 275 275 276 277 279 280 282 283 284 285 286 288 290 287 285 284 285 288 292 293 293 299 297 300 305 303 304 306 308 309 307 304 306 305 303 291 281
Height
5794 5795 5796 5796 5796 5796 5795 5794 5793 5791 5790 5788 5786 5784 5781 5778 5775 5771 5767 5762 5758 5752 5748 5744 5740 5736 5731 5726 5721 5715 5709 5704 5701 5695 5684 5676 5668 5660 5651 5641 5630 5619 5609
5782 5783 5785 5785 5786 5786 5785 5783 5782 5781 5779 5778 5775 5772 5770 5766 5762 5758 5753 5749 5745 5741 5738 5734 5730 5725 5720 5714 5708 5702 5695 5688 5682 5677 5666 5657 5648 5640 5632 5622 5611 5597 5588
5770 5772 5773 5774 5774 5774 5774 5772 5771 5770 5767 5765 5763 5760 5757 5754 5749 5745 5741 5737 5734 5731 5727 5723 5718 5713 5707 5701 5695 5688 5680 5671 5663 5655 5648 5636 5627 5619 5614 5603 5591 5579 5568
5759 5761 5762 5761 5762 5762 5761 5759 5758 5757 5755 5753 5751 5748 5745 5741 5738 5733 5730 5726 5723 5719 5715 5711 5706 5700 5694 5687 5679 5671 5663 5654 5644 5636 5627 5618 5608 5599 5589 5581 5577 5561 5552
5748 5749 5750 5750 5750 5749 5748 5747 5746 5745 5744 5741 5739 5737 5733 5729 5725 5722 5717 5713 5711 5707 5703 5698 5692 5686 5679 5672 5663 5653 5644 5635 5626 5618 5608 5597 5587 5578 5570 5561 5550 5543 5534
5735 5737 5738 5738 5737 5738 5737 5735 5735 5733 5731 5728 5725 5723 5719 5716 5712 5708 5703 5700 5697 5694 5689 5684 5677 5670 5663 5654 5645 5635 5625 5617 5607 5597 5586 5576 5566 5557 5548 5537 5527 5518 5513
5722 5723 5725 5725 5726 5725 5724 5724 5721 5719 5716 5714 5712 5709 5705 5702 5698 5694 5690 5687 5683 5679 5674 5667 5661 5654 5647 5638 5628 5617 5607 5596 5586 5576 5567 5555 5548 5536 5528 5519 5506 5493 5479
5710 5712 5712 5712 5712 5711 5710 5709 5707 5704 5702 5700 5698 5694 5691 5687 5683 5680 5677 5674 5670 5664 5658 5652 5644 5637 5629 5621 5612 5602 5591 5580 5570 5560 5549 5538 5526 5517 5506 5494 5483 5474 5459
5698 5699 5698 5698 5698 5696 5695 5694 5692 5690 5688 5685 5683 5680 5677 5673 5670 5667 5663 5659 5654 5649 5642 5636 5628 5620 5611 5603 5595 5584 5574 5563 5553 5542 5530 5518 5508 5497 5484 5475 5463 5451 5442
5684 5684 5683 5683 5682 5680 5680 5679 5677 5675 5672 5671 5669 5666 5662 5659 5655 5652 5648 5643 5638 5632 5626 5617 5610 5602 5593 5584 5575 5567 5559 5549 5538 5528 5517 5504 5492 5479 5466 5453 5442 5431 5417
5669 5669 5669 5668 5667 5666 5665 5663 5662 5660 5659 5657 5654 5652 5648 5645 5641 5638 5633 5628 5621 5615 5607 5600 5592 5583 5574 5565 5556 5549 5539 5530 5520 5510 5499 5488 5478 5465 5453 5439 5425 5411 5400
5653 5653 5652 5651 5651 5650 5649 5648 5648 5646 5644 5641 5640 5637 5634 5631 5627 5622 5617 5611 5605 5597 5590 5582 5574 5566 5558 5548 5537 5528 5520 5510 5502 5493 5483 5473 5461 5451 5438 5425 5411 5398 5385
5638 5639 5638 5637 5635 5634 5634 5634 5633 5631 5629 5627 5624 5621 5619 5615 5610 5605 5600 5594 5588 5581 5573 5565 5557 5549 5541 5532 5521 5511 5500 5492 5485 5477 5468 5458 5446 5434 5423 5412 5396 5386 5376
5625 5624 5623 5622 5622 5622 5620 5619 5618 5616 5614 5610 5608 5606 5602 5598 5593 5588 5583 5576 5569 5562 5554 5547 5539 5532 5523 5515 5506 5495 5485 5475 5468 5460 5453 5443 5432 5421 5408 5398 5388 5376 5368
5609 5608 5608 5608 5608 5607 5606 5605 5603 5600 5597 5595 5592 5588 5584 5580 5575 5569 5563 5557 5550 5544 5537 5529 5522 5514 5506 5498 5488 5480 5472 5463 5454 5444 5435 5427 5418 5407 5396 5384 5375 5365 5359
5593 5593 5593 5592 5592 5592 5591 5588 5586 5584 5581 5578 5574 5570 5565 5560 5554 5548 5543 5537 5530 5525 5518 5511 5503 5496 5489 5482 5475 5467 5458 5449 5439 5430 5420 5411 5403 5395 5386 5373 5363 5356 5350
5579 5579 5579 5578 5576 5574 5574 5572 5570 5567 5563 5560 5556 5551 5546 5542 5535 5529 5524 5517 5511 5505 5499 5493 5486 5479 5472 5465 5458 5451 5443 5434 5425 5415 5406 5397 5389 5381 5372 5362 5352 5345 5340
5564 5563 5562 5562 5560 5559 5558 5555 5552 5549 5545 5541 5537 5532 5526 5521 5515 5510 5505 5499 5493 5487 5481 5474 5468 5462 5455 5448 5441 5434 5426 5418 5409 5400 5391 5382 5374 5368 5359 5348 5339 5333 5329
5549 5548 5547 5545 5544 5542 5539 5536 5533 5529 5525 5520 5515 5510 5505 5501 5496 5491 5486 5480 5475 5468 5463 5457 5451 5444 5438 5431 5424 5417 5410 5402 5394 5386 5377 5368 5361 5353 5344 5334 5325 5319 5316
5531 5529 5528 5526 5524 5522 5519 5515 5511 5507 5503 5499 5495 5489 5487 5483 5477 5472 5466 5461 5456 5451 5445 5439 5433 5427 5421 5414 5407 5400 5393 5384 5377 5369 5361 5354 5346 5338 5329 5320 5311 5307 5303
5512 5511 5509 5506 5503 5500 5496 5493 5489 5486 5482 5478 5474 5469 5465 5462 5456 5450 5446 5442 5438 5432 5428 5422 5414 5408 5402 5396 5390 5384 5377 5369 5361 5354 5346 5339 5331 5323 5313 5305 5298 5293 5290
5492 5490 5488 5485 5482 5479 5475 5472 5468 5466 5463 5458 5453 5448 5443 5442 5435 5431 5426 5422 5419 5413 5408 5403 5396 5390 5385 5380 5374 5368 5361 5353 5346 5338 5330 5323 5315 5307 5298 5290 5283 5278 5275
5470 5468 5465 5463 5460 5456 5453 5450 5447 5444 5441 5436 5432 5428 5424 5420 5417 5413 5408 5403 5399 5394 5389 5384 5379 5373 5367 5363 5357 5351 5345 5337 5330 5322 5315 5306 5298 5290 5282 5275 5268 5264 5261
5447 5445 5442 5440 5437 5434 5431 5428 5424 5421 5419 5415 5412 5409 5405 5401 5398 5393 5388 5383 5379 5374 5369 5365 5361 5357 5351 5345 5340 5334 5328 5321 5313 5305 5298 5291 5282 5273 5266 5260 5254 5249 5246
5423 5421 5419 5417 5414 5411 5408 5405 5402 5400 5397 5394 5391 5388 5384 5380 5376 5371 5367 5363 5359 5356 5351 5347 5344 5340 5334 5329 5324 5317 5310 5303 5295 5288 5282 5274 5265 5256 5250 5244 5238 5234 5232
5400 5398 5396 5393 5390 5387 5384 5382 5380 5377 5375 5372 5370 5366 5362 5358 5354 5350 5346 5343 5340 5337 5334 5330 5325 5321 5316 5312 5306 5300 5293 5285 5279 5272 5265 5257 5247 5240 5234 5228 5222 5219 5217